Wind_Speed
49 46 43 55 50 43 38 38 35 33 28 28 21 10 21 28 25 26 21 16 18 16 14 16 18 25 24 19 22 19 19 21 19 20 19 20 20 22 22 21 23 20 22 24
54 52 52 49 56 52 48 44 39 32 28 22 32 25 23 28 26 27 29 21 20 24 17 21 24 23 25 25 24 22 21 23 22 22 22 22 23 25 26 27 23 26 28 32
64 60 59 54 43 54 56 49 40 35 35 32 33 30 27 36 36 42 36 20 26 23 22 22 28 23 26 25 26 25 22 23 25 25 25 25 28 31 31 30 31 33 35 37
72 69 67 52 51 49 50 52 46 36 38 31 31 26 24 27 45 33 22 21 27 27 21 26 29 25 24 28 27 27 26 26 27 30 32 31 35 36 38 37 36 37 39 40
60 72 69 58 51 51 53 48 55 46 36 25 34 34 38 34 32 47 31 28 25 21 29 29 22 23 28 27 23 25 30 32 33 37 40 38 41 41 42 42 42 43 46 49
55 59 61 52 52 56 62 57 48 48 45 37 30 29 28 31 31 33 28 27 21 30 27 23 29 33 32 32 26 30 34 39 42 47 48 46 46 44 44 47 47 48 51 54
51 56 53 51 44 48 54 47 53 55 53 47 45 34 26 29 29 21 25 28 31 27 28 32 39 37 40 41 42 43 44 48 61 37 41 56 40 42 44 50 50 51 56 58
50 54 50 49 41 43 47 44 45 53 55 52 51 42 33 32 35 30 28 35 39 35 37 38 39 41 46 45 44 48 51 52 63 78 71 61 36 40 45 53 52 50 57 50
45 48 48 49 52 46 46 38 42 47 49 46 51 51 46 37 34 42 42 39 37 41 47 43 47 48 45 49 51 55 52 48 62 29 42 23 31 34 41 48 56 54 59 64
42 40 43 49 48 43 46 43 40 45 44 46 44 58 53 46 42 46 43 42 41 37 39 44 47 50 51 54 55 54 49 50 50 49 46 37 33 26 35 44 45 40 52 56
43 33 38 41 42 46 49 49 45 50 36 44 47 46 48 47 38 36 44 45 43 41 42 47 50 51 53 53 55 46 52 53 55 51 42 32 29 36 46 50 51 51 51 52
41 35 39 39 42 57 55 51 50 45 43 44 42 35 32 35 36 38 44 47 48 50 51 52 55 55 52 52 51 49 53 55 53 48 42 44 42 48 51 52 50 52 54 53
44 42 44 43 53 63 61 57 54 44 44 39 41 41 36 39 42 46 44 45 46 47 49 51 48 49 48 55 54 53 57 56 50 47 45 46 47 48 49 50 51 51 52 55
45 48 51 53 58 62 62 57 51 43 47 45 42 42 43 36 38 41 43 42 39 44 46 51 52 53 54 57 57 60 58 53 49 48 48 47 48 48 49 51 49 49 52 54
19 42 49 52 50 51 55 62 36 41 44 40 38 38 34 37 34 33 36 35 39 40 47 51 53 56 57 59 61 57 53 50 48 48 47 46 46 48 49 44 47 48 48 49
25 32 37 41 51 55 52 55 23 35 27 23 37 41 37 22 32 37 33 37 39 42 46 50 53 56 59 56 53 49 48 48 47 44 43 43 46 44 39 42 44 44 45 41
24 36 41 33 45 59 65 51 37 48 41 33 35 42 20 19 30 30 33 37 42 46 50 53 52 52 53 52 49 48 46 42 40 40 40 41 39 37 40 43 42 45 39 37
32 41 44 45 43 48 56 44 28 9 19 14 24 12 13 20 26 32 38 41 44 48 48 46 46 46 46 47 47 42 42 42 38 38 39 37 35 37 40 41 42 41 34 32
16 32 40 32 24 14 29 34 21 19 9 12 15 17 20 26 31 33 37 37 37 37 38 40 41 42 42 42 42 44 44 43 41 39 35 34 36 39 39 40 35 32 30 28
23 15 14 27 13 12 11 16 7 9 14 18 21 23 27 29 31 31 30 32 32 33 35 37 39 41 43 43 42 41 41 40 38 35 33 34 37 37 36 31 30 27 21 19
11 10 8 7 3 0 6 9 11 14 19 21 22 24 26 28 31 30 28 29 31 34 35 36 38 41 41 39 35 35 34 33 31 30 29 30 32 30 27 23 24 18 16 16
6 5 4 4 4 6 10 14 16 18 19 20 19 20 21 23 25 27 28 29 29 31 32 31 31 29 29 28 27 28 28 28 27 27 27 27 26 24 21 18 18 19 18 19
4 3 4 4 4 4 7 10 13 16 17 16 18 20 23 24 25 27 28 27 28 29 29 32 33 35 34 31 25 24 25 26 25 26 25 23 21 18 18 18 18 20 18 19
5 4 6 5 5 6 9 14 13 19 17 20 22 23 24 26 27 24 23 24 27 28 31 33 34 34 33 33 30 27 26 24 24 23 23 22 21 19 18 17 17 18 22 23
2 2 3 3 3 3 6 6 10 12 14 16 18 19 19 17 17 22 25 25 26 29 32 33 32 30 30 30 27 24 22 22 21 19 21 21 19 17 20 17 21 21 21 19
5 3 2 2 4 6 7 7 8 5 9 10 12 13 15 17 20 22 20 20 23 25 27 28 26 22 24 23 18 19 19 20 18 20 22 19 19 21 20 24 22 18 16 16
3 5 3 7 11 12 13 10 9 8 9 11 13 14 15 16 15 15 16 19 21 23 21 19 20 20 14 14 17 18 17 19 20 16 15 15 17 20 20 20 19 18 19 20
Wind_Direction
254 253 232 216 214 213 219 224 236 236 226 216 225 242 249 265 268 281 260 277 310 299 306 319 311 307 302 301 289 277 268 269 273 282 278 281 290 299 307 305 307 312 325 328
248 247 245 243 222 217 216 220 230 240 214 225 222 241 239 233 257 273 254 283 278 288 282 300 300 304 302 300 293 284 272 265 265 268 262 273 284 283 288 297 296 305 312 317
245 244 245 249 246 230 223 222 227 235 227 217 228 226 237 258 264 231 241 281 264 276 288 288 290 297 310 303 289 287 279 272 268 265 263 269 278 284 292 291 294 306 310 314
245 244 244 250 249 249 240 222 226 234 234 229 214 221 241 264 267 244 256 257 256 257 266 270 281 287 299 301 296 284 278 274 273 274 277 274 272 279 282 288 295 302 306 309
246 246 248 249 248 246 243 235 220 226 231 235 233 236 236 232 233 237 242 253 252 248 252 266 281 280 298 292 282 277 278 279 278 276 271 266 269 275 279 286 292 298 300 301
239 243 244 246 242 244 243 240 226 230 228 229 232 240 241 231 249 266 224 244 233 242 257 270 266 277 284 285 277 273 278 279 275 267 264 258 263 270 281 285 288 291 293 296
249 242 245 244 236 235 239 240 229 231 226 228 235 235 234 243 244 246 234 237 249 250 263 260 271 276 285 282 278 283 283 287 279 263 231 260 249 265 271 277 285 290 289 287
248 247 240 242 232 236 236 237 235 231 234 232 235 234 234 236 241 237 234 258 248 260 267 272 274 281 282 284 284 288 295 296 290 285 271 270 242 264 274 279 283 287 292 304
248 246 241 235 227 217 218 226 221 227 219 231 235 234 233 237 241 240 246 250 251 261 267 272 276 278 274 283 288 290 291 292 299 255 337 283 297 282 277 282 289 286 291 295
243 239 235 230 229 206 211 219 220 224 213 221 232 234 236 240 245 248 244 248 253 257 261 266 273 272 277 282 287 290 293 298 310 312 310 310 277 269 287 296 291 290 289 296
239 236 236 227 221 195 201 206 212 222 205 215 229 231 235 241 241 247 248 252 254 255 259 263 266 270 274 283 286 287 300 303 308 309 311 312 296 266 295 299 299 301 301 299
240 247 238 220 204 196 206 207 207 209 210 217 219 222 229 237 239 241 247 249 253 257 260 263 267 271 275 281 288 292 298 300 302 304 302 299 298 300 297 301 305 303 302 302
243 245 232 211 201 201 205 207 208 215 207 216 219 229 231 229 229 233 238 246 253 258 262 266 271 277 283 285 289 293 293 296 293 289 291 296 299 300 304 305 302 303 304 307
247 232 218 206 197 201 212 213 212 208 201 212 222 221 218 223 235 235 242 245 252 258 266 271 275 279 281 285 287 290 292 289 291 298 300 302 303 304 304 305 307 307 310 309
219 214 203 198 190 198 207 217 231 165 194 195 210 224 217 231 232 239 247 253 260 265 270 274 277 279 280 283 286 287 290 298 302 302 304 305 304 304 302 303 305 310 309 313
196 208 204 196 199 205 217 219 266 194 132 148 204 219 232 223 236 240 249 259 264 268 270 272 275 279 283 285 288 295 297 297 300 302 302 301 299 298 302 305 308 309 315 318
201 203 199 203 207 211 214 221 239 204 226 192 197 221 222 237 235 246 257 264 267 271 274 276 278 280 280 286 293 294 295 295 296 296 298 300 302 305 308 311 312 314 315 313
210 206 202 205 213 223 233 236 271 133 122 166 197 226 249 254 258 259 260 264 269 270 269 272 277 282 284 285 287 290 293 295 295 299 302 304 307 310 312 311 314 315 312 310
113 200 215 229 209 200 195 209 182 131 140 196 211 228 245 252 256 261 264 268 274 279 282 282 283 283 284 284 286 291 293 295 297 300 303 307 310 313 315 317 320 319 318 319
85 101 75 95 131 99 128 134 145 204 206 218 229 239 248 256 261 270 275 278 282 284 286 288 289 288 288 288 288 290 290 291 293 298 305 309 312 317 321 321 327 329 328 330
49 68 80 116 103 280 233 242 245 239 233 247 252 255 261 264 265 269 274 277 281 285 289 292 294 293 291 289 290 291 293 294 295 296 300 304 309 314 313 311 322 325 323 332
297 315 21 83 141 200 235 241 246 249 249 251 256 259 263 267 269 271 272 278 285 290 292 297 303 308 305 297 292 293 294 293 294 297 301 307 312 312 310 310 321 317 330 332
207 212 250 262 275 266 261 253 250 253 262 271 269 268 268 270 273 278 284 284 285 288 295 298 297 299 300 300 299 296 294 294 295 298 303 306 300 300 301 303 314 317 314 323
234 254 267 271 292 284 279 266 263 260 257 263 269 270 270 274 276 280 278 287 291 300 298 298 299 298 295 290 288 286 288 291 292 294 299 295 291 285 292 302 306 311 314 317
332 342 218 248 266 309 260 322 246 269 260 259 270 270 275 282 279 280 288 299 303 300 301 299 300 301 295 292 290 292 291 290 291 294 297 291 289 282 298 302 308 313 317 320
292 311 225 205 309 327 338 326 332 307 275 288 288 288 287 288 286 291 303 306 307 307 307 303 299 296 298 287 286 287 288 290 294 300 294 284 288 295 298 301 301 301 301 306
24 303 321 357 339 326 318 341 347 328 307 298 285 287 301 305 304 307 308 311 318 321 317 318 316 312 299 292 293 294 300 300 297 296 292 296 298 306 310 313 312 311 310 311
Height
5874 5880 5883 5883 5888 5891 5893 5898 5899 5904 5907 5917 5918 5918 5921 5923 5924 5925 5926 5927 5929 5932 5932 5932 5932 5931 5932 5933 5933 5931 5930 5929 5929 5928 5926 5925 5924 5922 5920 5918 5915 5913 5911 5909
5865 5868 5869 5875 5883 5887 5888 5890 5892 5896 5899 5907 5913 5914 5914 5917 5916 5919 5920 5923 5926 5927 5927 5927 5928 5927 5927 5926 5927 5926 5925 5924 5924 5924 5922 5922 5920 5918 5915 5912 5910 5909 5907 5904
5852 5855 5858 5866 5879 5877 5880 5884 5888 5889 5893 5894 5901 5908 5910 5910 5909 5912 5915 5916 5921 5922 5922 5922 5921 5921 5921 5922 5921 5921 5921 5921 5919 5918 5917 5916 5913 5911 5909 5908 5906 5904 5900 5896
5836 5839 5845 5857 5862 5870 5874 5879 5882 5884 5886 5887 5890 5895 5901 5901 5899 5904 5903 5908 5914 5916 5917 5917 5916 5916 5915 5916 5917 5916 5915 5915 5913 5913 5911 5909 5906 5904 5902 5900 5899 5895 5891 5887
5820 5821 5832 5842 5854 5863 5861 5865 5870 5873 5880 5882 5883 5882 5885 5890 5892 5893 5900 5903 5906 5910 5912 5912 5911 5910 5911 5909 5909 5909 5908 5908 5907 5905 5901 5898 5895 5893 5890 5889 5887 5883 5880 5877
5806 5805 5812 5827 5838 5850 5842 5848 5870 5871 5872 5874 5876 5876 5880 5883 5884 5885 5894 5899 5898 5903 5904 5905 5903 5901 5901 5901 5899 5899 5899 5897 5893 5888 5883 5882 5879 5877 5877 5876 5872 5870 5868 5865
5788 5791 5803 5811 5822 5830 5829 5845 5846 5850 5857 5863 5864 5868 5872 5875 5878 5880 5885 5891 5893 5894 5895 5894 5893 5894 5892 5892 5891 5890 5889 5885 5881 5852 5844 5859 5861 5865 5863 5862 5863 5860 5857 5852
5774 5779 5790 5797 5809 5814 5824 5829 5833 5840 5848 5852 5856 5860 5861 5867 5872 5877 5880 5882 5886 5885 5885 5886 5885 5885 5884 5882 5881 5880 5878 5875 5864 5854 5848 5846 5849 5851 5854 5855 5851 5847 5840 5836
5761 5767 5778 5782 5786 5798 5808 5818 5821 5824 5831 5843 5847 5849 5853 5858 5863 5868 5871 5873 5877 5878 5879 5879 5876 5877 5875 5873 5871 5870 5867 5860 5851 5827 5834 5841 5842 5843 5845 5842 5840 5836 5831 5825
5748 5758 5762 5766 5776 5787 5799 5808 5813 5816 5822 5832 5835 5841 5846 5849 5852 5856 5861 5864 5866 5870 5872 5870 5868 5867 5865 5862 5860 5858 5855 5851 5845 5841 5836 5832 5828 5829 5829 5828 5826 5820 5815 5808
5737 5747 5748 5755 5763 5780 5787 5796 5803 5807 5813 5819 5828 5832 5837 5842 5845 5848 5851 5852 5856 5859 5861 5860 5858 5858 5856 5853 5851 5847 5844 5840 5835 5831 5827 5824 5822 5819 5815 5811 5807 5802 5795 5790
5724 5733 5735 5745 5756 5764 5772 5783 5789 5797 5804 5809 5817 5823 5828 5833 5837 5840 5842 5844 5846 5847 5849 5850 5848 5846 5846 5843 5841 5838 5834 5831 5827 5821 5816 5815 5811 5806 5799 5795 5791 5785 5778 5773
5712 5718 5721 5735 5736 5747 5761 5770 5778 5783 5787 5797 5805 5812 5817 5820 5824 5828 5832 5835 5836 5834 5835 5835 5835 5834 5832 5830 5828 5826 5824 5820 5815 5812 5809 5805 5800 5793 5783 5781 5776 5771 5764 5754
5695 5701 5707 5715 5727 5740 5752 5760 5766 5752 5763 5784 5792 5796 5801 5805 5810 5816 5821 5825 5824 5825 5824 5823 5821 5821 5820 5818 5816 5814 5811 5808 5803 5799 5794 5788 5782 5777 5772 5767 5761 5755 5748 5743
5686 5690 5703 5716 5729 5740 5747 5747 5723 5711 5761 5758 5769 5782 5788 5799 5805 5808 5811 5815 5817 5818 5816 5813 5811 5808 5806 5804 5802 5799 5794 5790 5786 5782 5777 5774 5770 5765 5762 5756 5749 5742 5739 5731
5690 5699 5710 5721 5733 5738 5741 5742 5729 5746 5734 5747 5764 5772 5783 5791 5798 5798 5801 5804 5806 5807 5805 5802 5799 5795 5791 5788 5785 5783 5781 5777 5773 5770 5766 5762 5760 5756 5749 5743 5738 5731 5723 5716
5695 5699 5708 5722 5726 5730 5731 5736 5740 5738 5740 5755 5763 5772 5779 5786 5789 5792 5794 5795 5796 5795 5794 5792 5788 5783 5779 5775 5773 5771 5769 5766 5764 5761 5757 5753 5747 5742 5736 5728 5723 5718 5711 5707
5693 5700 5710 5716 5724 5734 5731 5738 5742 5735 5740 5755 5764 5768 5774 5780 5782 5784 5786 5785 5785 5786 5784 5781 5778 5775 5771 5766 5763 5760 5758 5756 5753 5749 5745 5740 5734 5729 5724 5719 5714 5708 5701 5696
5697 5705 5713 5721 5725 5725 5727 5736 5746 5733 5750 5758 5763 5768 5772 5773 5772 5772 5773 5773 5773 5771 5769 5767 5766 5763 5758 5755 5753 5749 5745 5741 5739 5736 5732 5728 5723 5719 5714 5708 5701 5695 5691 5686
5711 5714 5713 5714 5715 5708 5712 5711 5729 5744 5749 5752 5757 5761 5763 5766 5766 5766 5765 5764 5762 5760 5757 5755 5751 5748 5745 5743 5741 5738 5734 5731 5728 5725 5721 5717 5713 5707 5702 5698 5693 5690 5685 5682
5710 5719 5723 5724 5724 5727 5733 5738 5741 5744 5747 5750 5753 5757 5759 5761 5761 5760 5758 5756 5753 5750 5748 5746 5743 5738 5734 5733 5731 5728 5725 5723 5721 5719 5715 5712 5708 5704 5700 5696 5692 5688 5684 5680
5714 5718 5721 5725 5729 5732 5733 5734 5738 5741 5744 5748 5751 5753 5753 5753 5753 5752 5751 5749 5747 5745 5742 5738 5733 5728 5724 5721 5719 5717 5716 5714 5712 5709 5706 5703 5699 5696 5694 5690 5687 5684 5681 5676
5720 5720 5722 5724 5728 5729 5731 5733 5735 5735 5737 5739 5741 5742 5744 5743 5742 5742 5741 5741 5739 5737 5732 5730 5726 5722 5718 5715 5713 5710 5707 5705 5703 5700 5697 5696 5694 5692 5689 5686 5683 5679 5676 5672
5722 5723 5722 5724 5724 5727 5730 5729 5730 5732 5732 5733 5734 5735 5735 5736 5738 5735 5733 5732 5729 5725 5721 5718 5715 5712 5709 5707 5705 5702 5701 5699 5696 5694 5692 5690 5688 5686 5683 5680 5677 5673 5670 5666
5720 5721 5722 5722 5722 5722 5724 5725 5726 5726 5728 5728 5729 5728 5727 5727 5727 5728 5726 5723 5719 5715 5712 5708 5705 5702 5699 5697 5695 5694 5692 5690 5688 5686 5684 5682 5680 5678 5676 5673 5670 5666 5663 5660
5721 5719 5717 5718 5719 5720 5722 5724 5724 5725 5725 5723 5723 5722 5723 5724 5723 5719 5716 5714 5711 5707 5703 5699 5697 5694 5691 5690 5688 5687 5685 5683 5681 5678 5677 5675 5674 5672 5670 5667 5664 5661 5658 5655
5719 5717 5714 5713 5714 5717 5720 5720 5720 5720 5719 5718 5720 5720 5717 5714 5713 5711 5710 5708 5704 5701 5697 5694 5691 5688 5686 5686 5685 5682 5679 5677 5675 5673 5672 5670 5668 5666 5662 5659 5657 5655 5652 5650